TimeEDT,TemperatureF,Dew PointF,Humidity,Sea Level PressureIn,VisibilityMPH,Wind Direction,Wind SpeedMPH,Gust SpeedMPH,PrecipitationIn,Events,Conditions,WindDirDegrees,DateUTC
12:51 AM,44.1,35.1,71,29.91,10.0,NW,3.5,-,N/A,,Clear,310,2012-10-17 04:51:00
1:51 AM,44.1,35.1,71,29.90,10.0,NW,5.8,-,N/A,,Clear,320,2012-10-17 05:51:00
2:51 AM,42.1,34.0,73,29.91,10.0,North,3.5,-,N/A,,Clear,350,2012-10-17 06:51:00
3:51 AM,42.1,35.1,76,29.91,10.0,North,8.1,-,N/A,,Clear,350,2012-10-17 07:51:00
4:51 AM,39.9,34.0,79,29.93,10.0,NNW,4.6,-,N/A,,Clear,340,2012-10-17 08:51:00
5:51 AM,37.9,32.0,79,29.94,10.0,Calm,Calm,-,N/A,,Partly Cloudy,0,2012-10-17 09:51:00
6:51 AM,37.9,33.1,83,29.96,10.0,Calm,Calm,-,N/A,,Scattered Clouds,0,2012-10-17 10:51:00
7:51 AM,39.9,35.1,83,29.97,10.0,Calm,Calm,-,N/A,,Mostly Cloudy,0,2012-10-17 11:51:00
8:51 AM,45.0,35.1,68,29.99,10.0,Calm,Calm,-,N/A,,Scattered Clouds,0,2012-10-17 12:51:00
9:51 AM,50.0,36.0,59,29.99,10.0,Calm,Calm,-,N/A,,Scattered Clouds,0,2012-10-17 13:51:00
10:51 AM,53.1,33.1,47,29.99,10.0,North,5.8,-,N/A,,Mostly Cloudy,10,2012-10-17 14:51:00
11:51 AM,55.0,33.1,43,29.97,10.0,Calm,Calm,-,N/A,,Mostly Cloudy,0,2012-10-17 15:51:00
12:51 PM,57.9,32.0,37,29.94,10.0,Variable,3.5,-,N/A,,Mostly Cloudy,0,2012-10-17 16:51:00
1:51 PM,61.0,30.9,32,29.94,10.0,NNW,5.8,-,N/A,,Mostly Cloudy,330,2012-10-17 17:51:00
2:51 PM,63.0,30.9,30,29.93,10.0,WNW,4.6,-,N/A,,Mostly Cloudy,300,2012-10-17 18:51:00
3:51 PM,57.9,39.0,49,29.94,10.0,South,9.2,-,N/A,,Mostly Cloudy,170,2012-10-17 19:51:00
4:51 PM,57.0,42.1,57,29.94,10.0,SSE,8.1,-,N/A,,Mostly Cloudy,160,2012-10-17 20:51:00
5:51 PM,54.0,43.0,66,29.96,10.0,SE,4.6,-,N/A,,Mostly Cloudy,140,2012-10-17 21:51:00
6:51 PM,52.0,43.0,71,29.98,10.0,South,4.6,-,N/A,,Mostly Cloudy,170,2012-10-17 22:51:00
7:51 PM,50.0,42.1,74,30.00,10.0,SSW,3.5,-,N/A,,Overcast,200,2012-10-17 23:51:00
8:51 PM,48.9,42.1,77,30.00,10.0,Calm,Calm,-,N/A,,Overcast,0,2012-10-18 00:51:00
9:51 PM,48.9,42.1,77,30.01,10.0,South,5.8,-,N/A,,Mostly Cloudy,180,2012-10-18 01:51:00
10:51 PM,48.9,43.0,80,30.02,10.0,Calm,Calm,-,N/A,,Overcast,0,2012-10-18 02:51:00
11:51 PM,46.0,42.1,86,30.01,10.0,Calm,Calm,-,N/A,,Overcast,0,2012-10-18 03:51:00